"Time","Temp","Dewpoint","Humidity","Pressure","Direction","Speed","Gust","Precip","PrecipRate"
"00:04:59","62.1","57.5","84.8","29.52","340","2.9","10.4","0.00","0.00"
"00:09:59","61.9","57.1","84.3","29.52","313","3.2","9.2","0.00","0.00"
"00:14:59","61.6","57","85","29.53","327","4","11.5","0.00","0.00"
"00:19:57","61.4","56.8","85","29.53","313","4.5","9.2","0.00","0.00"
"00:24:59","61.2","56.8","85.3","29.53","334","3.7","7","0.00","0.00"
"00:29:57","60.8","56.6","86","29.53","333","3.1","7","0.00","0.00"
"00:34:59","60.6","56.7","86.9","29.53","309","2.2","6","0.00","0.00"
"00:39:57","60.4","56.6","87.2","29.53","320","2.2","6","0.00","0.00"
"00:44:59","60.3","56.7","88","29.54","331","2","4","0.00","0.00"
"00:49:57","60.2","56.6","88","29.54","331","0.6","3.5","0.00","0.00"
"00:54:56","60.1","56.8","88.8","29.54","330","0.6","3.5","0.00","0.00"
"00:59:57","60","56.8","89.1","29.54","328","1.5","4","0.00","0.00"
"01:04:59","59.9","56.9","89.7","29.52","320","3.8","9.2","0.00","0.00"
"01:09:57","59.7","56.3","88.6","29.52","314","3.8","9.2","0.00","0.00"
"01:14:59","59.5","55.7","87.4","29.54","339","4.5","9","0.00","0.00"
"01:19:57","59.3","55.4","87","29.54","339","3.2","9.2","0.00","0.00"
"01:24:59","59.2","55","86.2","29.54","324","3.2","10.4","0.00","0.00"
"01:29:57","58.9","54.6","85.5","29.54","328","3.6","10.4","0.00","0.00"
"01:34:59","58.7","54","84.4","29.54","322","3.1","10","0.00","0.00"
"01:39:57","58.5","53.5","83.3","29.54","303","3.9","10.4","0.00","0.00"
"01:44:59","58.3","52.4","80.9","29.55","311","4.6","9.2","0.00","0.00"
"01:49:57","58.1","51.6","78.8","29.55","311","4.4","12","0.00","0.00"
"01:54:59","57.9","50.9","77.5","29.55","313","4.8","13","0.00","0.00"
"01:59:57","57.8","50.2","75.7","29.55","330","7.3","15","0.00","0.00"
"02:04:57","57.8","50","75.4","29.55","312","5.1","12","0.00","0.00"
"02:09:59","57.6","49.7","75","29.55","291","5.3","12","0.00","0.00"
"02:14:57","57.5","49.6","75","29.55","327","5.8","11.5","0.00","0.00"
"02:19:59","57.4","49.5","75","29.55","336","7.9","16.1","0.00","0.00"
"02:24:57","57.3","49.3","74.6","29.55","322","8.2","15","0.00","0.00"
"02:29:59","57.1","48.7","73.3","29.56","330","9.1","18.4","0.00","0.00"
"02:34:56","57","48.4","73","29.56","314","6.7","15","0.00","0.00"
"02:39:58","56.8","47.9","71.9","29.56","307","6.9","16.1","0.00","0.00"
"02:44:56","56.6","47.6","71.7","29.57","316","7","16.1","0.00","0.00"
"02:49:58","56.4","47.3","71.3","29.57","316","6.7","15","0.00","0.00"
"02:54:56","56.2","47.1","71.3","29.57","321","7.4","15","0.00","0.00"
"02:59:57","56.1","47.3","72.2","29.58","302","4.5","12","0.00","0.00"
"03:04:55","55.9","47.4","73","29.58","302","3.9","11.5","0.00","0.00"
"03:09:57","55.7","47.3","73.3","29.58","319","5.2","12","0.00","0.00"
"03:14:59","55.5","47.1","73.4","29.59","303","5.8","13","0.00","0.00"
"03:19:58","55.4","46.9","73.2","29.59","306","4.5","16","0.00","0.00"
"03:24:56","55.1","46.6","73","29.59","341","7","16.1","0.00","0.00"
"03:29:57","54.7","45.8","72","29.59","337","9.5","21","0.00","0.00"
"03:34:59","54.3","45.6","72.2","29.59","326","7.4","19.6","0.00","0.00"
"03:39:57","54","45.3","72.3","29.59","344","8","18.4","0.00","0.00"
"03:44:59","53.8","45","72","29.61","321","6.8","18.4","0.00","0.00"
"03:49:57","53.5","44.7","71.9","29.61","334","6.1","18.4","0.00","0.00"
"03:54:59","53.3","44.1","71","29.61","320","7.9","18.4","0.00","0.00"
"03:59:57","53.2","44","71","29.63","317","6.7","14","0.00","0.00"
"04:04:56","53","44.1","71.7","29.63","300","4","13","0.00","0.00"
"04:09:58","52.7","44.5","73.6","29.63","298","4.1","13","0.01","0.01"
"04:14:56","51.9","44.5","75.8","29.65","275","8.2","17.3","0.02","0.02"
"04:19:57","50.8","44.1","77.6","29.65","272","5.8","16.1","0.02","0.02"
"04:24:59","50.3","43.6","77.7","29.65","295","4.9","16.1","0.02","0.02"
"04:29:57","50.1","43.1","77","29.65","291","4.6","13","0.02","0.02"
"04:34:58","49.9","42.5","75.6","29.64","301","4.9","15","0.02","0.02"
"04:39:57","49.9","42.3","75.1","29.64","339","2.7","6","0.02","0.02"
"04:44:59","49.7","42.4","76","29.64","345","1.1","6","0.02","0.02"
"04:49:57","49.5","42.3","76.3","29.62","359","0.4","2.3","0.02","0.02"
"04:54:59","49.3","42.4","77.3","29.62","360","0.8","2.3","0.02","0.02"
"04:59:57","49.1","42.7","78.3","29.66","360","0.3","2.3","0.02","0.02"
"05:04:59","49","43.1","80.2","29.66","360","0","1.2","0.02","0.02"
"05:09:57","48.8","43.1","80.9","29.66","360","0.2","1.2","0.03","0.02"
"05:14:59","48.6","43.2","81.4","29.66","360","0.9","3.5","0.03","0.02"
"05:19:57","48.5","43.6","82.8","29.63","360","0.6","2.3","0.03","0.01"
"05:24:59","48.4","43.8","84.2","29.63","4","1.1","3.5","0.03","0.01"
"05:29:57","48.2","43.9","85","29.63","5","0.2","1.2","0.03","0.01"
"05:34:59","48.1","43.8","85","29.62","5","0.2","1.2","0.03","0.01"
"05:39:58","48","43.9","85.9","29.62","5","0.5","2.3","0.03","0.01"
"05:44:56","47.9","43.9","86","29.65","5","0.3","2.3","0.03","0.01"
"05:49:58","47.8","43.8","86","29.65","5","0","1","0.03","0.01"
"05:54:57","47.7","44.1","87.3","29.65","5","0","1.2","0.03","0.01"
"05:59:59","47.7","44.3","88","29.65","5","0","0","0.03","0.01"
"06:04:57","47.6","43.9","87.2","29.64","359","1","4","0.03","0.01"
"06:09:56","47.4","43.4","85.9","29.64","351","0.5","4","0.03","0.01"
"06:14:59","47.4","43.1","84.9","29.66","292","1.2","4","0.03","0.00"
"06:19:57","47.4","42.1","81.7","29.66","288","1.4","4","0.03","0.00"
"06:24:59","47.6","41.5","79.4","29.66","330","1.7","5","0.03","0.00"
"06:29:57","47.7","41.3","78.3","29.66","307","2","4","0.03","0.00"
"06:34:59","47.8","40.5","75.5","29.66","319","2.8","9.2","0.03","0.00"
"06:39:57","48.1","40","73.4","29.66","331","3","9.2","0.03","0.00"
"06:44:59","48.3","39.4","71.2","29.67","313","3.5","8.1","0.03","0.00"
"06:49:58","48.5","39.6","71.1","29.67","342","3.1","7","0.03","0.00"
"06:54:56","48.5","39.3","70.6","29.67","352","2.9","9.2","0.03","0.00"
"06:59:58","48.4","38.9","69.7","29.67","350","2.3","6","0.03","0.00"
"07:04:59","48.4","38.7","69.2","29.67","337","2.1","5","0.03","0.00"
"07:09:57","48.3","38.6","69.2","29.67","335","2.6","10.4","0.03","0.00"
"07:14:56","48.1","38","67.8","29.68","340","2.7","6","0.03","0.00"
"07:19:58","48.1","38","68","29.68","298","1.4","4","0.03","0.00"
"07:24:57","48","37.8","67.6","29.68","311","2.1","4","0.03","0.00"
"07:29:58","47.9","37.5","67","29.69","314","2.3","7","0.03","0.00"
"07:34:56","47.9","37.6","67.3","29.69","340","0.4","2.3","0.03","0.00"
"07:39:59","47.8","37.7","68.1","29.69","333","0.7","3.5","0.03","0.00"
"07:44:56","47.6","38.3","70","29.69","333","0.4","2","0.03","0.00"
"07:49:59","47.4","37.8","69.2","29.69","333","0","0","0.03","0.00"
"07:54:57","47.2","37.7","69.4","29.69","333","0","0","0.03","0.00"
"07:59:56","47.2","37.9","70.2","29.69","333","0","0","0.03","0.00"
"08:04:57","47.1","38.3","71.2","29.69","333","0","0","0.03","0.00"
"08:09:59","47.3","38.6","71.8","29.69","333","0","0","0.03","0.00"
"08:14:57","47.5","38.7","71.2","29.70","331","0.6","2.3","0.03","0.00"
"08:19:59","47.8","39.4","72.5","29.70","308","0.8","2.3","0.03","0.00"
"08:24:57","48","39.5","72.1","29.70","227","1.4","3.5","0.03","0.00"
"08:29:59","48.3","39.5","71.5","29.71","214","1.3","3.5","0.03","0.00"
"08:34:56","48.7","38.8","68.6","29.71","237","2.5","6","0.03","0.00"
"08:39:58","49.1","38.7","67.4","29.71","229","2.9","6","0.03","0.00"
"08:44:56","49.4","38.3","65.3","29.71","237","3.4","6","0.03","0.00"
"08:49:58","49.8","38.3","64.6","29.71","236","2.9","5.8","0.03","0.00"
"08:54:56","50","37.4","61.9","29.71","282","2.7","5","0.03","0.00"
"08:59:58","50.2","38.2","63.3","29.72","239","2.7","5","0.03","0.00"
"09:04:59","50.5","38.3","62.9","29.72","236","2.5","5","0.03","0.00"
"09:09:57","51.1","38.8","62.7","29.72","253","3.2","9.2","0.03","0.00"
"09:14:56","51.8","39.3","62.3","29.73","233","3.8","9.2","0.03","0.00"
"09:19:58","52.2","38.6","59.6","29.73","244","3.1","7","0.03","0.00"
"09:24:59","52.5","39","59.8","29.73","222","4","7","0.03","0.00"
"09:29:57","52.8","38.5","58.3","29.73","275","5","11.5","0.03","0.00"
"09:34:58","53.1","37.7","55.8","29.73","301","4.6","10","0.03","0.00"
"09:39:56","53.3","37.4","54.7","29.73","298","5.2","12","0.03","0.00"
"09:44:58","53","37.2","54.8","29.75","245","3.5","11.5","0.03","0.00"
"09:49:59","52.8","37.9","56.9","29.75","285","2.9","12","0.03","0.00"
"09:54:58","53.2","37.6","55.3","29.75","309","4.1","10.4","0.03","0.00"
"09:59:59","53.5","37.9","55.4","29.75","325","5.2","14","0.03","0.00"
"10:04:56","53.4","36.8","53.3","29.74","318","5.8","18.4","0.03","0.00"
"10:09:59","52.9","36.9","54.3","29.74","320","5.7","16.1","0.03","0.00"
"10:14:57","52.5","36.7","54.9","29.75","296","4","10.4","0.03","0.00"
"10:19:58","52.4","37.2","56.2","29.75","269","3.9","8.1","0.03","0.00"
"10:24:56","52.5","38","57.7","29.75","282","3.8","13","0.03","0.00"
"10:29:57","52.4","36.7","55.1","29.76","286","4.3","12.7","0.03","0.00"
"10:34:59","52.1","37.1","56.5","29.76","256","3.8","12","0.03","0.00"
"10:39:57","52","37.3","57.1","29.76","293","5.4","11.5","0.03","0.00"
"10:44:59","52.2","37.5","57.1","29.77","277","4.3","9.2","0.03","0.00"
"10:49:57","52.7","38.4","58.2","29.77","254","4.9","12","0.03","0.00"
"10:54:58","53.2","37.7","55.5","29.77","266","5.7","14","0.03","0.00"
"10:59:56","53.5","38.8","57.4","29.77","251","4.8","12.7","0.03","0.00"
"11:04:57","53.4","38.4","56.6","29.77","240","5.8","14","0.03","0.00"
"11:09:59","53.1","37.2","54.7","29.77","272","4","12.7","0.03","0.00"
"11:14:57","52.9","37.4","55.5","29.77","273","4.8","13","0.03","0.00"
"11:19:58","53.1","38.8","58.3","29.77","247","4.5","8.1","0.03","0.00"
"11:24:56","53.2","37.9","56.1","29.77","304","4.7","10.4","0.03","0.00"
"11:29:58","52.8","37.2","55.2","29.77","316","5","10.4","0.03","0.00"
"11:34:59","52.4","36.9","55.5","29.77","311","5.1","19","0.03","0.00"
"11:39:57","51.6","37.1","57.5","29.77","292","8.1","20.7","0.03","0.00"
"11:44:59","50.6","36.6","58.7","29.78","292","7.2","18","0.03","0.00"
"11:49:57","50","37","60.8","29.78","256","6.6","18.4","0.03","0.00"
"11:54:59","49.8","36.4","59.8","29.78","260","4.3","14","0.03","0.00"
"11:59:56","50","37.5","62","29.79","235","5.9","13","0.03","0.00"
"12:04:57","50.4","37.5","61","29.79","250","5.1","12","0.03","0.00"
"12:09:59","50.9","37.1","59","29.79","281","5.3","12","0.03","0.00"
"12:14:57","50.5","34.5","54","29.80","294","8.7","23","0.03","0.00"
"12:19:59","49.5","34.6","56.4","29.80","286","8.1","16.1","0.03","0.00"
"12:24:56","49.2","35.8","59.9","29.80","276","10","16.1","0.03","0.00"
"12:29:58","48.5","36.2","62.3","29.82","269","10.9","22","0.03","0.00"
"12:34:59","47.2","35.6","64","29.82","237","7.7","21.9","0.03","0.00"
"12:39:57","48","38","68.2","29.82","238","7.1","13","0.03","0.00"
"12:44:58","49.7","39.5","68","29.82","246","6.7","13","0.03","0.00"
"12:49:56","50.8","38.9","63.6","29.81","251","6.3","14","0.03","0.00"
"12:54:58","51.2","38.5","61.7","29.81","255","5.2","12.7","0.03","0.00"
"12:59:59","51.7","38.6","60.9","29.81","244","5.9","14","0.03","0.00"
"13:04:56","51.7","37.6","58.4","29.81","253","5.8","14","0.03","0.00"
"13:09:58","51.9","37.4","57.5","29.81","277","5.7","16.1","0.03","0.00"
"13:14:56","52.2","37.5","57.3","29.81","280","5.9","15","0.03","0.00"
